TimeCST,TemperatureF,Dew PointF,Humidity,Sea Level PressureIn,VisibilityMPH,Wind Direction,Wind SpeedMPH,Gust SpeedMPH,PrecipitationIn,Events,Conditions,WindDirDegrees,DateUTC
12:15 AM,33.8,32.0,93,30.37,10.0,Calm,Calm,-,N/A,,Clear,0,2012-11-16 06:15:00
12:35 AM,35.6,33.8,93,30.36,10.0,Calm,Calm,-,N/A,,Clear,0,2012-11-16 06:35:00
12:55 AM,35.6,32.0,87,30.37,10.0,Calm,Calm,-,N/A,,Clear,0,2012-11-16 06:55:00
1:15 AM,33.8,32.0,93,30.37,10.0,Calm,Calm,-,N/A,,Clear,0,2012-11-16 07:15:00
1:35 AM,33.8,32.0,93,30.38,10.0,Calm,Calm,-,N/A,,Clear,0,2012-11-16 07:35:00
1:55 AM,35.6,32.0,87,30.38,10.0,ENE,3.5,-,N/A,,Clear,60,2012-11-16 07:55:00
2:15 AM,35.6,32.0,87,30.38,10.0,Calm,Calm,-,N/A,,Clear,0,2012-11-16 08:15:00
2:35 AM,33.8,32.0,93,30.38,10.0,Calm,Calm,-,N/A,,Clear,0,2012-11-16 08:35:00
2:55 AM,32.0,30.2,93,30.38,10.0,Calm,Calm,-,N/A,,Clear,0,2012-11-16 08:55:00
3:15 AM,32.0,28.4,87,30.39,10.0,Calm,Calm,-,N/A,,Clear,0,2012-11-16 09:15:00
3:35 AM,30.2,28.4,93,30.39,10.0,Calm,Calm,-,N/A,,Clear,0,2012-11-16 09:35:00
3:55 AM,32.0,30.2,93,30.39,10.0,Calm,Calm,-,N/A,,Clear,0,2012-11-16 09:55:00
4:15 AM,30.2,30.2,100,30.39,10.0,Calm,Calm,-,N/A,,Clear,0,2012-11-16 10:15:00
4:35 AM,32.0,30.2,93,30.38,10.0,Calm,Calm,-,N/A,,Clear,0,2012-11-16 10:35:00
4:55 AM,30.2,30.2,100,30.39,10.0,Calm,Calm,-,N/A,,Clear,0,2012-11-16 10:55:00
5:15 AM,30.2,30.2,100,30.39,10.0,Calm,Calm,-,N/A,,Clear,0,2012-11-16 11:15:00
5:35 AM,32.0,32.0,100,30.39,5.0,Calm,Calm,-,N/A,,Clear,0,2012-11-16 11:35:00
5:55 AM,30.2,30.2,100,30.40,10.0,Calm,Calm,-,N/A,,Clear,0,2012-11-16 11:55:00
6:15 AM,30.2,30.2,100,30.41,10.0,Calm,Calm,-,N/A,,Clear,0,2012-11-16 12:15:00
6:35 AM,30.2,28.4,93,30.40,10.0,Calm,Calm,-,N/A,,Clear,0,2012-11-16 12:35:00
6:55 AM,28.4,28.4,100,30.41,10.0,Calm,Calm,-,N/A,,Clear,0,2012-11-16 12:55:00
7:15 AM,28.4,28.4,100,30.41,10.0,Calm,Calm,-,N/A,,Clear,0,2012-11-16 13:15:00
7:35 AM,30.2,28.4,93,30.42,10.0,Calm,Calm,-,N/A,,Clear,0,2012-11-16 13:35:00
7:55 AM,32.0,32.0,100,30.42,10.0,Calm,Calm,-,N/A,,Clear,0,2012-11-16 13:55:00
8:15 AM,33.8,33.8,100,30.43,10.0,Calm,Calm,-,N/A,,Clear,0,2012-11-16 14:15:00
8:35 AM,39.2,35.6,87,30.43,10.0,Calm,Calm,-,N/A,,Clear,0,2012-11-16 14:35:00
8:55 AM,42.8,39.2,87,30.43,10.0,Calm,Calm,-,N/A,,Clear,0,2012-11-16 14:55:00
9:15 AM,44.6,41.0,87,30.43,10.0,Calm,Calm,-,N/A,,Clear,0,2012-11-16 15:15:00
9:35 AM,48.2,41.0,76,30.43,10.0,Calm,Calm,-,N/A,,Clear,0,2012-11-16 15:35:00
9:55 AM,51.8,41.0,67,30.43,10.0,Calm,Calm,-,N/A,,Clear,0,2012-11-16 15:55:00
10:15 AM,53.6,37.4,54,30.44,10.0,Calm,Calm,-,N/A,,Clear,0,2012-11-16 16:15:00
10:35 AM,55.4,41.0,58,30.43,7.0,Calm,Calm,-,N/A,,Clear,0,2012-11-16 16:35:00
10:55 AM,55.4,39.2,54,30.43,10.0,Calm,Calm,-,N/A,,Clear,0,2012-11-16 16:55:00
11:15 AM,59.0,39.2,48,30.43,10.0,ESE,3.5,-,N/A,,Clear,120,2012-11-16 17:15:00
11:35 AM,59.0,37.4,45,30.42,10.0,ENE,3.5,-,N/A,,Clear,70,2012-11-16 17:35:00
11:55 AM,60.8,37.4,42,30.41,10.0,ENE,5.8,-,N/A,,Clear,70,2012-11-16 17:55:00
12:15 PM,60.8,39.2,45,30.40,10.0,Calm,Calm,-,N/A,,Clear,0,2012-11-16 18:15:00
12:35 PM,62.6,37.4,39,30.39,10.0,SE,3.5,-,N/A,,Clear,130,2012-11-16 18:35:00
12:55 PM,62.6,37.4,39,30.38,10.0,East,3.5,-,N/A,,Clear,100,2012-11-16 18:55:00
1:15 PM,62.6,37.4,39,30.38,10.0,SE,4.6,-,N/A,,Clear,130,2012-11-16 19:15:00
1:35 PM,64.4,37.4,37,30.37,10.0,ESE,4.6,-,N/A,,Clear,110,2012-11-16 19:35:00
1:55 PM,64.4,39.2,40,30.36,10.0,Calm,Calm,-,N/A,,Clear,0,2012-11-16 19:55:00
2:15 PM,64.4,37.4,37,30.35,10.0,Calm,Calm,-,N/A,,Clear,0,2012-11-16 20:15:00
2:35 PM,64.4,37.4,37,30.35,10.0,ESE,4.6,-,N/A,,Clear,110,2012-11-16 20:35:00
2:55 PM,64.4,37.4,37,30.34,10.0,SSW,4.6,-,N/A,,Clear,200,2012-11-16 20:55:00
3:15 PM,64.4,37.4,37,30.34,10.0,Calm,Calm,-,N/A,,Clear,0,2012-11-16 21:15:00
3:35 PM,64.4,37.4,37,30.34,10.0,ESE,4.6,-,N/A,,Clear,120,2012-11-16 21:35:00
3:55 PM,64.4,37.4,37,30.34,10.0,Calm,Calm,-,N/A,,Clear,0,2012-11-16 21:55:00
4:15 PM,62.6,37.4,39,30.35,10.0,ESE,3.5,-,N/A,,Clear,120,2012-11-16 22:15:00
4:35 PM,62.6,37.4,39,30.35,10.0,ESE,3.5,-,N/A,,Clear,120,2012-11-16 22:35:00
4:55 PM,60.8,37.4,42,30.34,10.0,Calm,Calm,-,N/A,,Clear,0,2012-11-16 22:55:00
5:15 PM,59.0,35.6,42,30.35,10.0,Calm,Calm,-,N/A,,Clear,0,2012-11-16 23:15:00
5:35 PM,55.4,35.6,47,30.35,10.0,Calm,Calm,-,N/A,,Clear,0,2012-11-16 23:35:00
5:55 PM,51.8,35.6,54,30.35,10.0,Calm,Calm,-,N/A,,Clear,0,2012-11-16 23:55:00
6:15 PM,46.4,32.0,57,30.35,10.0,Calm,Calm,-,N/A,,Clear,0,2012-11-17 00:15:00
6:35 PM,42.8,33.8,70,30.35,10.0,Calm,Calm,-,N/A,,Clear,0,2012-11-17 00:35:00
6:55 PM,41.0,33.8,76,30.35,10.0,Calm,Calm,-,N/A,,Clear,0,2012-11-17 00:55:00
7:15 PM,41.0,33.8,76,30.35,10.0,Calm,Calm,-,N/A,,Clear,0,2012-11-17 01:15:00
7:35 PM,39.2,33.8,81,30.35,10.0,Calm,Calm,-,N/A,,Clear,0,2012-11-17 01:35:00
7:55 PM,37.4,33.8,87,30.35,10.0,Calm,Calm,-,N/A,,Clear,0,2012-11-17 01:55:00
8:15 PM,35.6,33.8,93,30.36,10.0,Calm,Calm,-,N/A,,Clear,0,2012-11-17 02:15:00
8:35 PM,35.6,33.8,93,30.36,10.0,Calm,Calm,-,N/A,,Clear,0,2012-11-17 02:35:00
8:55 PM,35.6,32.0,87,30.37,10.0,Calm,Calm,-,N/A,,Clear,0,2012-11-17 02:55:00
9:15 PM,35.6,32.0,87,30.36,10.0,Calm,Calm,-,N/A,,Clear,0,2012-11-17 03:15:00
9:35 PM,37.4,33.8,87,30.36,10.0,Calm,Calm,-,N/A,,Clear,0,2012-11-17 03:35:00
9:55 PM,35.6,32.0,87,30.36,10.0,Calm,Calm,-,N/A,,Clear,0,2012-11-17 03:55:00
10:15 PM,37.4,33.8,87,30.36,10.0,Calm,Calm,-,N/A,,Clear,0,2012-11-17 04:15:00
10:35 PM,35.6,32.0,87,30.36,10.0,Calm,Calm,-,N/A,,Clear,0,2012-11-17 04:35:00
10:55 PM,35.6,32.0,87,30.36,10.0,Calm,Calm,-,N/A,,Clear,0,2012-11-17 04:55:00
11:15 PM,35.6,32.0,87,30.35,10.0,Calm,Calm,-,N/A,,Clear,0,2012-11-17 05:15:00
11:35 PM,33.8,32.0,93,30.35,10.0,Calm,Calm,-,N/A,,Clear,0,2012-11-17 05:35:00
11:55 PM,33.8,30.2,87,30.36,10.0,Calm,Calm,-,N/A,,Clear,0,2012-11-17 05:55:00